Location: Arrodets-la-Barthe
(43.0306°N, 0.2829°E)
Time: 19:21:03
(UTC+00:00)

AO-91 - Visible Passes

Search period start: 28 March 2023 00:00
Search period end: 07 April 2023 00:00
Orbit: 448 x 779 km, 97.6° (Epoch: 27 March)

Date Brightness Start Highest point End Pass type
(mag) Time Alt. Az. Time Alt. Az. Time Alt. Az.
28 Mar ? 22:02:36 10° NNE 22:02:57 12° NNE 22:02:57 12° NNE visible
28 Mar ? 23:39:43 10° NNW 23:40:00 11° NNW 23:40:00 11° NNW visible
29 Mar ? 22:17:56 10° NNE 22:18:42 15° NNE 22:18:42 15° NNE visible
30 Mar ? 22:33:21 10° N 22:34:26 17° N 22:34:26 17° N visible
31 Mar ? 22:48:48 10° N 22:50:07 18° N 22:50:07 18° N visible
01 Apr ? 21:28:30 10° NNE 21:28:45 11° NE 21:28:45 11° NE visible
01 Apr ? 23:04:19 10° N 23:05:47 18° NNW 23:05:47 18° NNW visible
02 Apr ? 21:43:33 10° NNE 21:44:24 15° NNE 21:44:24 15° NNE visible
02 Apr ? 23:19:56 10° N 23:21:26 17° NNW 23:21:26 17° NNW visible
03 Apr ? 21:58:42 10° NNE 22:00:01 18° NNE 22:00:01 18° NNE visible
03 Apr ? 23:35:38 10° NNW 23:37:03 15° NNW 23:37:03 15° NNW visible
04 Apr ? 22:13:55 10° NNE 22:15:37 21° NNE 22:15:37 21° NNE visible
04 Apr ? 23:51:32 10° NNW 23:52:39 13° NW 23:52:39 13° NW visible
05 Apr ? 22:29:11 10° N 22:31:11 24° N 22:31:11 24° N visible
06 Apr ? 00:08:02 10° NW 00:08:13 10° NW 00:08:13 10° NW visible
06 Apr ? 21:09:30 10° NE 21:09:41 11° NE 21:09:41 11° NE visible
06 Apr ? 22:44:30 10° N 22:46:43 25° N 22:46:43 25° N visible
